Theta_e
322 322 322 322 323 323 323 322 321 323 322 319 320 317 317 317 317 316 316 314 316 316 315 313 311 310 309 307 305 303 301 300 299 297 296 295 294 294
321 321 321 320 319 320 317 321 320 320 322 319 318 317 317 316 314 314 312 310 308 307 306 304 303 300 298 298 297 295 294 294 292 291 290 289 288 288
318 318 319 317 317 317 316 317 318 319 320 320 319 317 315 314 310 307 307 304 299 296 296 296 294 293 292 289 288 286 285 285 285 284 284 283 284 284
318 318 318 318 319 317 317 317 318 319 319 319 317 317 313 309 306 304 297 297 294 289 289 288 287 287 288 286 282 284 284 283 282 281 280 280 281 281
317 314 317 319 319 319 319 317 318 317 317 317 317 313 307 301 297 295 293 291 289 287 287 288 286 284 283 281 280 282 281 280 280 278 278 278 279 279
316 316 318 318 318 317 317 317 316 317 317 317 316 310 303 297 295 292 288 287 286 284 284 284 284 282 279 279 279 281 280 278 277 278 278 278 278 278
317 318 318 317 318 318 317 317 317 316 316 315 310 299 295 291 291 289 287 285 283 283 282 282 282 281 279 279 279 280 277 276 277 277 277 277 277 277
317 317 317 317 317 317 317 317 316 315 314 311 302 296 289 289 288 287 286 285 284 281 281 281 279 280 280 279 277 276 276 277 277 276 276 276 276 276
317 317 314 312 313 313 313 313 311 310 308 308 303 293 286 285 285 283 283 282 281 277 278 282 279 279 278 278 277 276 276 276 276 276 276 276 276 276
315 314 312 308 307 308 304 301 297 296 295 296 293 287 285 283 283 281 281 280 278 277 276 280 279 278 278 278 277 276 276 276 275 275 276 276 276 276
312 310 309 307 304 301 300 291 283 280 280 281 281 282 282 281 281 280 281 282 280 278 276 278 278 277 278 278 278 277 276 276 276 276 276 276 276 276
300 298 299 299 291 290 294 286 279 277 277 277 277 278 278 277 277 278 279 280 280 280 275 278 277 276 278 278 277 277 277 277 277 276 276 276 276 276
291 288 286 286 284 283 284 281 278 277 277 276 275 275 274 275 275 275 276 278 278 276 273 275 276 277 277 277 277 278 277 278 277 278 277 277 276 276
285 283 282 281 280 282 281 277 277 277 275 275 275 275 275 274 274 274 274 274 274 274 273 274 275 275 276 277 278 277 278 278 278 278 278 278 278 278
282 282 280 279 278 277 276 276 276 276 275 275 275 274 274 273 273 273 273 273 273 272 272 273 273 274 275 276 277 277 277 278 278 278 278 278 279 280
278 277 276 276 276 275 275 275 275 276 276 275 274 273 273 274 273 274 274 274 276 275 273 273 273 274 275 275 275 276 278 278 278 278 277 278 280 281
277 276 275 275 274 274 273 273 273 273 273 273 273 273 273 273 273 273 274 275 276 275 276 275 274 274 275 275 276 277 277 278 277 277 277 279 280 281
276 275 275 274 274 274 273 273 273 272 273 273 273 273 274 274 274 274 274 275 276 275 275 274 275 275 276 277 275 275 276 276 276 277 278 279 280 281
277 275 275 274 274 273 274 273 272 271 272 273 273 273 274 273 275 274 274 274 275 275 275 274 274 274 276 278 276 273 274 274 276 277 277 279 280 282
277 276 275 274 274 274 273 272 272 272 271 271 272 272 272 273 273 273 273 273 273 274 274 274 274 272 272 273 273 274 274 275 275 276 277 278 280 283
275 275 274 274 273 272 272 272 271 271 271 271 271 271 271 272 272 272 272 270 271 273 274 273 272 270 271 272 275 276 276 275 275 275 276 278 281 282
273 273 272 272 271 271 271 270 270 270 270 270 270 270 270 271 271 271 271 271 272 272 272 272 272 272 273 273 274 274 276 277 277 278 278 279 279 282
272 271 271 270 270 270 271 271 271 270 270 269 270 269 269 270 269 270 270 270 270 270 271 271 272 273 273 273 273 275 276 277 278 279 281 281 280 280
Wind_Speed
32 28 23 19 16 14 11 9 9 6 7 5 5 7 2 8 8 6 7 10 13 16 17 16 12 10 11 10 8 6 5 6 7 9 11 14 17 18
27 26 22 17 16 14 13 6 5 7 6 5 4 3 2 9 9 8 5 8 8 7 6 7 7 5 2 1 3 6 7 9 11 13 14 15 17 19
27 27 23 23 22 19 18 13 10 8 10 6 7 5 3 8 8 6 7 4 2 6 6 6 5 5 7 9 10 11 11 11 11 13 14 17 18 19
28 28 26 26 25 27 22 22 20 14 12 10 6 9 9 9 11 10 7 8 8 12 10 8 8 8 10 11 11 9 6 9 11 14 15 18 19 19
35 30 27 24 24 18 20 24 19 22 19 17 13 12 8 13 15 13 10 9 9 9 4 5 6 6 9 9 7 7 10 11 12 17 21 21 19 20
30 31 30 31 30 28 25 26 24 24 22 19 17 13 12 14 18 16 12 10 8 5 1 3 5 6 8 9 6 7 9 13 19 21 19 22 21 23
29 29 30 29 27 27 29 29 28 26 24 20 17 10 10 12 15 14 9 11 8 4 1 4 6 6 8 9 7 8 10 18 21 19 20 19 22 25
33 33 32 31 31 30 31 33 31 29 26 25 15 9 10 11 12 14 16 9 3 3 4 4 3 4 6 5 8 7 13 16 21 19 21 22 24 25
33 34 29 25 27 24 23 22 20 20 21 21 17 13 14 14 16 15 12 11 5 4 3 0 4 6 8 7 11 11 15 19 20 21 22 24 25 25
33 34 32 27 23 20 17 13 9 6 7 12 15 16 19 19 16 16 14 14 9 6 6 1 6 9 9 5 11 17 17 20 20 22 24 25 25 27
26 28 27 26 23 23 22 24 27 30 28 28 29 27 24 20 18 17 13 11 5 2 7 2 6 11 7 4 9 16 17 17 20 23 22 23 24 28
22 22 23 24 25 26 27 32 35 28 31 30 29 27 23 19 17 15 11 10 8 6 6 3 6 9 6 6 14 15 15 19 22 23 23 24 26 26
24 21 23 27 27 26 28 30 32 32 30 29 26 22 18 18 13 12 11 9 9 9 4 4 3 7 6 11 13 9 17 19 19 18 18 22 24 23
28 30 31 30 29 29 30 34 33 32 28 26 21 17 14 12 11 11 11 12 11 9 4 4 2 7 9 13 8 17 18 18 16 16 21 19 18 19
35 38 37 37 37 36 34 30 29 27 22 19 17 15 13 12 11 10 9 8 8 6 4 4 5 8 9 11 14 16 18 18 10 20 20 18 18 19
42 37 38 40 39 35 31 26 20 15 17 18 17 14 13 11 10 7 6 5 5 5 4 5 8 11 12 11 13 14 14 13 19 17 19 17 15 15
44 39 32 28 28 27 25 22 20 17 16 17 16 13 12 10 8 6 7 6 4 4 5 8 10 12 11 13 12 10 14 14 15 17 17 16 14 15
35 29 26 20 20 19 21 19 17 17 15 13 14 13 11 9 9 7 6 4 4 5 7 10 13 14 12 6 7 9 12 15 16 15 14 16 17 17
25 25 23 20 19 17 17 17 17 14 13 13 12 10 9 8 8 7 5 3 4 6 8 9 12 15 13 8 9 9 12 17 17 14 14 15 18 18
22 21 21 18 16 16 16 15 15 13 12 13 12 9 8 7 7 5 4 6 5 6 7 7 9 12 12 12 14 17 16 15 14 16 16 17 19 16
18 19 18 17 17 17 16 14 13 12 11 11 10 8 7 5 5 4 4 5 7 6 7 9 10 14 13 14 14 15 15 14 14 16 17 17 15 13
17 16 15 15 16 15 14 13 14 11 10 9 8 7 5 5 4 4 5 5 5 7 8 11 11 12 12 12 14 17 18 18 17 14 14 11 11 9
17 16 14 14 14 13 12 11 10 10 8 7 6 5 4 4 4 3 3 5 6 8 9 13 12 12 12 12 14 17 18 18 18 17 12 11 15 17
Wind_Direction
190 188 189 188 175 154 153 175 191 179 189 141 177 135 154 294 261 213 258 276 288 289 286 283 271 256 251 244 245 254 280 323 331 344 344 347 351 350
183 180 179 172 164 163 161 151 227 215 207 166 178 248 296 268 259 248 223 261 282 265 229 211 205 186 138 48 16 357 349 342 341 341 345 344 343 344
185 186 189 197 206 196 201 211 210 199 226 165 185 192 222 235 237 214 205 200 137 117 138 145 117 71 40 22 18 11 358 357 359 359 355 350 347 345
190 194 199 200 199 208 210 204 205 201 206 209 192 217 213 220 221 211 189 165 136 112 114 101 78 58 34 5 6 41 39 15 1 347 354 350 342 340
196 203 208 201 205 201 200 213 214 227 242 249 217 202 189 190 176 178 170 145 130 135 124 85 61 28 14 354 13 8 28 13 360 350 341 340 339 334
202 198 204 212 213 215 225 236 235 239 233 221 224 205 201 188 185 173 156 163 143 145 102 40 25 8 6 352 19 22 10 2 349 341 342 339 333 328
210 212 219 226 230 234 231 236 238 231 229 226 208 178 177 171 184 181 165 164 127 123 89 2 5 352 359 4 355 332 345 347 344 340 335 331 328 327
208 214 221 226 233 234 243 247 234 226 218 209 195 177 186 172 170 167 155 149 160 57 56 344 4 344 332 332 322 340 339 336 338 335 331 329 329 325
209 211 206 207 216 209 212 219 220 222 225 226 202 181 158 159 154 139 136 124 109 50 8 340 332 329 334 336 323 341 333 331 332 331 332 330 329 327
209 205 196 186 189 192 187 171 143 150 172 178 163 148 144 138 135 127 120 113 101 79 39 304 339 333 331 327 316 332 329 326 329 332 330 330 330 325
195 197 197 194 193 192 178 138 111 95 93 106 113 120 121 121 117 116 131 139 121 86 22 7 353 331 325 302 321 325 326 327 330 329 329 331 331 328
182 186 193 187 169 165 160 143 116 116 117 111 106 106 109 118 129 123 120 122 128 140 13 10 359 355 322 301 326 327 330 331 333 331 335 333 330 330
158 145 142 147 137 134 144 136 126 130 119 114 107 102 102 97 96 97 100 103 106 101 44 34 347 351 325 316 321 331 335 332 332 331 330 327 326 326
126 124 123 120 120 131 125 120 122 124 117 110 105 103 99 97 93 95 96 94 91 99 81 43 353 347 330 320 327 329 334 329 326 329 331 328 329 328
116 119 117 111 107 105 111 117 118 115 112 109 106 107 108 105 97 91 92 93 90 86 70 23 360 340 326 307 312 324 325 330 327 331 329 332 333 337
113 114 113 112 111 112 113 108 104 109 114 115 114 115 109 104 102 105 104 108 91 58 14 355 356 340 324 314 312 317 326 324 322 328 327 329 335 340
119 115 105 102 102 103 104 107 109 110 108 111 114 115 110 114 104 96 85 77 69 38 16 360 353 339 318 304 301 309 324 323 326 325 329 329 338 340
113 104 100 102 102 113 115 111 110 109 112 116 115 116 120 118 103 84 73 69 57 30 15 359 351 351 343 329 268 311 326 328 328 328 330 332 330 333
105 103 105 115 117 117 117 118 115 114 117 112 110 114 112 104 98 84 69 57 38 22 11 355 352 348 340 340 332 309 324 329 327 328 334 330 317 317
101 109 110 114 118 118 115 113 115 115 109 111 109 107 104 102 97 94 67 38 20 14 351 342 347 343 328 319 309 302 312 314 323 323 326 323 312 318
106 108 116 120 120 120 117 119 116 112 112 109 111 108 102 107 93 68 48 34 17 348 334 339 334 323 311 303 295 309 316 317 308 302 307 312 322 327
106 106 107 110 109 111 117 121 116 110 106 107 111 109 108 96 75 46 25 7 344 335 328 325 327 326 318 312 314 319 322 323 325 314 300 287 283 317
105 105 106 107 110 117 120 121 123 118 117 118 120 122 107 89 62 32 357 333 325 328 330 329 328 325 325 327 323 321 321 322 324 322 313 303 299 297